Burbank, CA

5:23 PM PDT on August 21, 2017 (GMT -0700)
Burbank-Glendale-Pasadena

Weather History for KBUR - September, 2012

Change the Weather History Date:

Friday, September 14, 2012

  Actual Average Record
Temperature  
Mean Temperature 86 °F 74 °F  
Max Temperature 104 °F 87 °F 109 °F (1971)
Min Temperature 68 °F 61 °F 48 °F (1974)
Degree Days  
Heating Degree Days 0 0  
Month to date heating degree days 0 0  
Since 1 July heating degree days 0 0  
Cooling Degree Days 21 9  
Month to date cooling degree days 213 134  
Year to date cooling degree days 1231 1016  
Growing Degree Days 35 (Base 50)    
Moisture  
Dew Point 45 °F    
Average Humidity 37    
Maximum Humidity 64    
Minimum Humidity 9    
Precipitation  
Precipitation 0.00 in 0.00 in 0.00 in (2017)
Month to date precipitation T 0.04  
Year to date precipitation 5.48 12.68  
Since 1 July precipitation T  
Sea Level Pressure  
Sea Level Pressure 29.93 in    
Wind  
Wind Speed 4 mph (WSW)    
Max Wind Speed 15 mph    
Max Gust Speed 22 mph    
Visibility 10 miles    
Events      
T = Trace of Precipitation, MM = Missing Value Source: NWS Daily Summary

Daily Weather History Graph

Daily Weather History Graph

Search for Another Location

Airport or City:

Trip Planner

Search our weather history database for the weather conditions in past years. The results will help you decide how hot, cold, wet, or windy it might be!

Date:

Astronomy

Sep. 14, 2012 Rise Set
Actual Time 6:36 AM PDT 7:00 PM PDT
Civil Twilight 6:11 AM PDT 7:25 PM PDT
Nautical Twilight 5:41 AM PDT 7:55 PM PDT
Astronomical Twilight 5:11 AM PDT 8:25 PM PDT
Moon 5:07 AM PDT (9/14) 5:59 PM PDT (9/14)
Length of Visible Light 13h 14m
Length of Day
12h 24m
Waning Crescent, 2% of the Moon is Illuminated
Sep 14
Waning Crescent
Sep 15
New
Sep 22
First Quarter
Sep 29
Full
Oct 8
Last Quarter

Hourly Weather History & Observations

Time (PDT) Temp. Dew Point Humidity Pressure Visibility Wind Dir Wind Speed Gust Speed Precip Events Conditions
12:53 AM 75.0 °F 62.1 °F 64% 29.95 in 10.0 mi Calm Calm - N/A   Clear
1:53 AM 73.9 °F 55.0 °F 52% 29.94 in 10.0 mi Calm Calm - N/A   Clear
2:53 AM 72.0 °F 53.1 °F 51% 29.94 in 10.0 mi Calm Calm - N/A   Clear
3:53 AM 71.1 °F 53.1 °F 53% 29.93 in 10.0 mi Calm Calm - N/A   Clear
4:53 AM 69.1 °F 50.0 °F 51% 29.93 in 10.0 mi Calm Calm - N/A   Clear
5:53 AM 68.0 °F 50.0 °F 52% 29.95 in 10.0 mi Calm Calm - N/A   Clear
6:53 AM 69.1 °F 48.9 °F 49% 29.95 in 10.0 mi WNW 3.5 mph - N/A   Clear
7:53 AM 72.0 °F 57.9 °F 61% 29.97 in 10.0 mi Calm Calm - N/A   Clear
8:53 AM 81.0 °F 48.9 °F 33% 29.97 in 10.0 mi Calm Calm - N/A   Clear
9:53 AM 90.0 °F 48.9 °F 24% 29.97 in 10.0 mi Calm Calm - N/A   Clear
10:53 AM 96.1 °F 42.1 °F 15% 29.97 in 10.0 mi South 4.6 mph - N/A   Clear
11:53 AM 100.0 °F 39.0 °F 12% 29.96 in 10.0 mi ESE 11.5 mph - N/A   Clear
12:53 PM 102.0 °F 41.0 °F 12% 29.94 in 10.0 mi South 10.4 mph - N/A   Clear
1:53 PM 102.9 °F 37.0 °F 10% 29.92 in 10.0 mi South 6.9 mph - N/A   Clear
2:53 PM 102.9 °F 34.0 °F 9% 29.90 in 10.0 mi WSW 5.8 mph - N/A   Clear
3:53 PM 102.9 °F 37.0 °F 10% 29.88 in 10.0 mi WSW 6.9 mph - N/A   Clear
4:53 PM 102.9 °F 37.9 °F 11% 29.86 in 10.0 mi SSW 11.5 mph - N/A   Clear
5:53 PM 100.9 °F 37.9 °F 11% 29.87 in 10.0 mi SW 6.9 mph - N/A   Clear
6:53 PM 97.0 °F 39.9 °F 14% 29.88 in 10.0 mi WNW 4.6 mph - N/A   Clear
7:53 PM 93.0 °F 42.1 °F 17% 29.89 in 10.0 mi West 4.6 mph - N/A   Clear
8:53 PM 91.0 °F 44.1 °F 20% 29.91 in 10.0 mi WNW 3.5 mph - N/A   Clear
9:53 PM 86.0 °F 44.1 °F 23% 29.92 in 10.0 mi NW 3.5 mph - N/A   Clear
10:53 PM 84.0 °F 43.0 °F 24% 29.93 in 10.0 mi NW 3.5 mph - N/A   Clear
11:53 PM 84.0 °F 41.0 °F 22% 29.94 in 10.0 mi Calm Calm - N/A   Clear